Lid_Strength_Index
-1 -1 -1 -1 -1 -1 -1 -1 -0 -1 -1 -0 -0 -0 -0 0 1 4 4 3 5 9 9 8 7 9 10 11 14 11 13 13 15 13 13 14 16 12 13 12 13 14 15 16 15 17 18 8 9 12 10 9 8 8
-1 -1 -1 -1 -1 -1 -1 -1 -1 -1 -1 -0 -0 -0 0 1 1 1 5 4 3 7 9 7 6 6 6 6 10 10 12 13 11 12 13 11 13 13 13 16 10 15 13 15 14 14 10 9 9 9 8 8 8 8
-0 -1 -1 -1 -1 -1 -1 -1 -1 -1 -1 -0 -0 -0 0 0 -0 1 4 3 3 6 7 8 8 4 4 5 4 10 9 8 9 8 10 11 13 11 14 13 12 10 10 13 12 10 10 9 8 8 8 7 7 8
-0 -1 -1 -1 -1 -1 -1 -1 -0 -1 -1 -1 -0 0 0 -0 -0 -0 3 2 3 6 10 10 4 6 4 4 5 6 7 6 7 7 9 11 13 10 12 11 11 10 10 11 13 10 10 9 8 8 7 7 8 9
-0 -1 -1 -1 -0 -0 -0 -0 -0 -0 -0 0 0 0 0 0 0 1 3 2 2 6 10 11 5 4 4 5 6 6 6 7 8 10 11 13 11 11 10 11 12 11 11 12 13 9 10 10 8 7 7 7 7 8
-0 -1 -1 -1 -1 -1 -0 -0 -0 0 0 0 0 0 0 0 0 2 7 3 1 3 8 12 6 6 4 5 6 7 7 7 8 9 11 10 8 9 12 13 10 10 9 9 10 9 9 8 7 6 7 7 7 8
-1 -1 -1 -0 -0 -0 -0 0 0 1 1 1 1 1 1 0 2 5 6 3 1 2 8 11 11 6 6 6 7 8 6 8 8 9 10 9 9 9 12 14 10 9 8 8 8 8 9 7 9 7 6 7 7 9
-0 0 0 0 0 0 0 1 1 1 1 1 1 1 0 1 2 4 3 2 1 5 7 11 11 9 6 9 10 8 9 9 9 9 9 10 10 11 14 11 10 9 9 9 7 6 7 7 7 7 8 9 10 10
-0 -0 -0 -1 -1 -1 -1 -0 1 1 1 1 1 0 1 3 6 5 1 1 2 5 10 11 13 14 8 9 9 9 9 12 9 11 11 11 13 15 11 10 9 9 9 9 7 7 7 8 8 8 9 10 10 10
-0 -1 -1 -1 -1 -0 0 1 1 1 1 0 2 5 9 6 1 2 5 7 8 8 10 12 11 12 11 11 11 11 11 13 14 12 11 14 14 10 9 8 9 8 8 8 9 10 8 9 8 9 9 9 9 9
-1 -0 -0 0 1 1 2 1 1 1 2 5 7 8 5 2 6 9 12 13 12 13 11 10 11 12 9 14 13 11 13 13 15 13 13 14 14 11 10 9 9 8 8 7 7 7 7 8 8 9 9 9 10 10
-0 0 0 1 1 2 2 2 1 3 4 4 4 4 6 8 11 13 14 11 11 13 11 12 11 11 10 8 13 11 12 13 15 12 13 16 13 10 10 10 9 9 7 6 6 7 8 9 9 9 10 10 11 11
-0 1 1 1 1 2 2 2 1 1 1 5 6 8 11 11 19 17 19 14 16 12 9 9 10 9 8 8 10 11 16 15 12 13 16 14 11 10 10 10 10 9 9 9 9 10 10 10 11 11 12 14 13 13
-0 0 1 1 2 1 1 1 1 1 3 8 9 16 16 19 13 14 13 13 11 8 8 8 9 10 9 11 11 15 14 11 14 15 15 13 11 11 11 10 9 10 10 11 11 12 14 14 16 16 16 16 13 14
1 1 1 1 1 1 1 1 0 1 5 9 9 18 14 11 11 10 9 8 9 8 8 9 9 9 11 17 11 12 15 17 14 17 17 13 11 11 11 10 11 13 14 15 17 16 17 17 16 17 18 16 17 18
2 3 3 2 2 1 1 1 2 4 6 7 9 11 11 11 14 15 15 13 7 8 8 8 10 11 13 12 13 14 16 18 17 17 13 12 12 9 10 10 11 12 13 17 17 17 17 17 17 18 18 15 20 20
2 3 1 1 1 1 1 3 4 7 9 10 12 11 11 13 12 13 12 10 7 9 10 11 15 13 12 14 14 13 17 16 15 11 10 12 12 10 10 11 12 12 15 15 14 14 14 14 14 13 13 13 14 16
2 2 1 1 1 2 2 3 6 8 9 8 12 15 11 10 11 12 10 10 9 8 9 11 12 13 18 16 17 16 18 19 11 11 10 13 9 10 10 11 11 12 13 13 11 12 12 11 11 12 12 13 14 15
3 3 1 0 2 3 5 5 5 9 9 11 13 13 12 13 8 8 9 10 8 6 7 9 13 14 15 14 16 19 16 15 12 11 12 9 11 12 10 10 11 11 11 11 10 10 10 10 10 11 12 12 14 16
1 1 1 0 1 5 6 6 4 7 11 11 11 11 11 12 11 10 8 7 8 8 9 11 13 14 13 13 12 12 13 12 10 11 11 10 10 10 10 10 10 10 10 10 10 10 10 11 10 11 11 12 15 19
4 3 1 2 4 4 7 8 8 9 10 11 11 11 12 11 12 12 10 8 8 9 11 11 13 16 9 12 12 12 11 10 12 12 12 11 10 10 10 10 9 10 10 10 11 11 11 11 11 11 11 12 16 18
5 1 5 3 6 6 7 7 9 9 10 10 10 9 13 17 16 13 10 11 11 11 11 12 12 9 9 10 10 9 10 10 10 12 12 11 11 11 11 10 10 10 10 10 10 10 10 10 10 10 11 12 14 17
3 4 6 6 10 12 11 7 9 9 12 12 11 12 14 15 12 9 14 11 13 13 12 11 10 8 10 9 9 9 9 10 11 11 11 11 10 11 10 10 9 10 10 10 9 10 10 10 10 10 11 11 12 13
4 7 11 11 11 16 11 13 9 9 11 10 12 14 13 14 11 14 14 12 14 14 13 11 11 11 11 9 11 11 11 10 11 13 11 10 10 10 9 9 9 9 9 9 9 9 9 10 10 10 10 11 12 14
14 15 14 18 13 11 11 13 14 10 14 13 12 15 15 11 14 16 15 14 14 14 15 13 10 9 10 10 10 9 8 9 9 10 10 9 10 10 10 10 10 9 9 9 9 9 9 9 9 10 10 11 14 15
18 18 18 18 20 13 13 16 17 17 16 17 16 13 13 14 17 18 14 15 14 15 9 9 9 9 9 9 10 10 9 8 9 10 10 9 9 10 11 11 13 12 10 9 9 9 10 10 10 10 11 11 12 14
19 18 12 10 10 10 15 15 11 16 19 18 17 18 19 18 20 14 13 12 12 14 11 11 11 10 11 10 10 10 10 9 9 10 10 9 9 9 9 11 11 10 10 9 8 9 10 10 10 10 10 11 12 13
14 13 17 14 13 11 15 17 17 17 16 12 14 18 19 18 17 13 12 12 11 9 9 10 10 11 11 11 12 12 13 13 12 12 13 11 12 13 11 12 13 11 10 9 9 10 10 9 10 10 10 11 13 15
12 13 13 18 17 14 15 14 15 13 12 13 17 18 16 12 13 13 12 12 10 11 14 15 10 9 10 10 12 11 13 11 11 13 11 11 12 13 12 15 13 13 11 10 10 10 10 9 10 10 10 11 14 15
13 13 12 19 19 17 16 14 16 14 10 12 12 11 11 12 13 13 13 14 14 14 12 15 16 9 9 10 9 9 9 10 9 9 12 13 12 16 12 13 12 12 11 10 10 10 10 11 12 14 15 16 17 16
11 13 13 14 15 15 16 15 15 13 19 19 17 16 14 17 15 16 11 12 18 20 18 17 18 11 11 9 9 9 9 9 8 9 11 14 17 14 13 13 12 10 10 10 10 10 11 12 13 15 16 17 16 16
14 15 16 16 15 13 15 15 19 19 20 14 15 16 15 17 17 16 13 8 9 9 11 16 18 13 9 8 7 7 8 10 9 9 10 11 12 12 10 11 10 10 10 11 11 11 11 12 14 16 17 16 17 17
12 14 15 15 14 14 17 16 17 18 18 18 19 18 14 17 16 14 16 8 8 8 8 8 8 9 11 9 7 7 7 7 7 8 8 10 10 11 11 10 9 10 10 10 11 11 12 12 14 17 16 16 17 18